Powrót do katalogu

STARLINK-3889

AktywnyŁącznośćVLEO
NORAD 52331·PAYLOAD·🇺🇸 United States

Wystrzelony Apr 29, 2022 z Cape Canaveral Space Force Station

Loading…

Następne Przeloty (najbliższe 24 godziny)

TLE

ŚwieżeSource: CelesTrak SupGP

Epoka: Sep 15, 2026, 02:22 UTC

1 52331C 22045A   26258.09909722  .00673210  00000+0  22420-1 0  2585
2 52331  53.1607  76.9669 0001270  82.7473 221.1966 15.30241340    13

Śledź STARLINK-3889 w czasie rzeczywistym z AllMySat

Download on the App Store